Flag for U.S.A. Weather past 2 weeks in Raleigh, North Carolina, U.S.A.

Now
36 °F

Drizzle. Fog.


Feels Like: 36 °F
Forecast: 35 / 43 °F
Wind: No wind

Location: Raleigh-Durham International Airport

Current Time: Mar 3, 2015 at 3:34:27 PM

Latest Report: Mar 3, 2015 at 2:51 PM


Visibility: 2 mi

Pressure: 30.25 "Hg

Humidity: 79%

Dew point: 30 °F

Location of RaleighLocation

Historic Weather in Raleigh — Graph

°F

Raleigh temperature yesterday

Maximum temperature yesterday: 60 °F (at 2:51 PM)
Minimum temperature yesterday: 35 °F (at 12:51 AM)
Average temperature yesterday: 45 °F

Past Weeks' High & Low Weather Summary

 TemperatureHumidityPressure
High60 °F (Mar 2, 2:51 PM)97% (Mar 2, 4:51 AM)30.81 "Hg (Mar 2, 4:51 AM)
Low7 °F (Feb 20, 5:51 AM)24% (Feb 16, 1:51 PM)29.70 "Hg (Feb 26, 3:51 AM)
Average31 °F66%30.22 "Hg
* Reported Feb 16 1:51 PM — Mar 3 1:51 PM, Raleigh, Weather by CustomWeather, © 2015

Note: Actual official high and low records may vary slightly from our data, if they occured in-between our weather recording intervals... More about our weather records

Advertising

Raleigh weather history for previous 24 hours

 ConditionsComfort  
Time TempWeatherWind HumidityBarometerVisibility
1:51 PM
Tue, Mar 3
39 °FOvercast.No wind50%30.27 "Hg10 mi
12:51 PM39 °FMostly cloudy.No wind41%30.32 "Hg10 mi
11:51 AM39 °FOvercast.3 mph45%30.37 "Hg10 mi
10:51 AM38 °FOvercast.5 mph48%30.37 "Hg10 mi
9:51 AM37 °FOvercast.12 mph44%30.40 "Hg10 mi
8:51 AM37 °FMostly cloudy.7 mph50%30.41 "Hg10 mi
7:51 AM37 °FMostly cloudy.13 mph46%30.39 "Hg10 mi
6:51 AM38 °FMostly cloudy.6 mph53%30.38 "Hg10 mi
5:51 AM39 °FOvercast.10 mph53%30.37 "Hg10 mi
4:51 AM40 °FOvercast.12 mph58%30.35 "Hg10 mi
3:51 AM40 °FPassing clouds.8 mph58%30.34 "Hg10 mi
2:51 AM41 °FPassing clouds.9 mph65%30.35 "Hg10 mi
1:51 AM42 °FPassing clouds.8 mph79%30.36 "Hg10 mi
12:51 AM41 °FOvercast.9 mph80%30.35 "Hg10 mi
11:51 PM
Mon, Mar 2
37 °FPassing clouds.3 mph67%30.35 "Hg10 mi
10:51 PM38 °FPassing clouds.No wind60%30.36 "Hg10 mi
9:51 PM41 °FPassing clouds.5 mph51%30.34 "Hg10 mi
8:51 PM44 °FPassing clouds.No wind45%30.32 "Hg10 mi
7:51 PM49 °FPassing clouds.No wind36%30.31 "Hg10 mi
6:51 PM51 °FPassing clouds.6 mph31%30.29 "Hg10 mi
5:51 PM54 °FPartly sunny.7 mph33%30.27 "Hg10 mi
4:51 PM58 °FPartly sunny.3 mph39%30.25 "Hg10 mi
3:51 PM59 °FPartly sunny.7 mph44%30.24 "Hg10 mi
Weather by CustomWeather, © 2015

See weather overviewHow to use our weather pages